Location: Allonne
(49.4086°N, 2.1143°E)
Time: 15:11:26
(UTC+00:00)

Cosmos 2322 Rocket - Pass Details

Date: 03 February 2023
Orbit: 831 x 851 km, 71.0° (Epoch: 25 March)

Event Time Altitude Azimuth Distance (km) Brightness Sun altitude
Rises 18:14:47 0° 199° (SSW) 3,363 5.7 -13.9°
Reaches altitude 10° 18:17:13 10° 197° (SSW) 2,433 4.9 -14.3°
Maximum altitude 18:22:46 71° 114° (ESE) 881 2.1 -15.2°
Drops below altitude 10° 18:28:21 10° 32° (NNE) 2,454 4.3 -16.1°
Enters shadow 18:28:27 10° 32° (NNE) 2,492 4.3 -16.1°
